TimeCST,TemperatureF,Dew PointF,Humidity,Sea Level PressureIn,VisibilityMPH,Wind Direction,Wind SpeedMPH,Gust SpeedMPH,PrecipitationIn,Events,Conditions,WindDirDegrees,DateUTC
12:23 AM,26.6,24.8,93,29.51,0.8,SE,4.6,-,0.01,Snow,Light Snow,140,2013-02-18 06:23:00
12:39 AM,26.6,26.6,100,29.51,0.5,SE,4.6,-,0.04,Fog-Snow,Snow,140,2013-02-18 06:39:00
12:53 AM,27.0,26.1,96,29.56,1.0,SSE,5.8,-,0.05,Snow,Light Snow,150,2013-02-18 06:53:00
1:02 AM,26.6,26.6,100,29.51,1.5,SSE,5.8,-,0.00,Snow,Light Snow,160,2013-02-18 07:02:00
1:05 AM,26.6,26.6,100,29.51,2.0,SSE,4.6,-,0.00,Snow,Light Snow,160,2013-02-18 07:05:00
1:24 AM,26.6,24.8,93,29.50,1.8,SE,5.8,-,0.00,Snow,Light Snow,140,2013-02-18 07:24:00
1:38 AM,26.6,24.8,93,29.50,1.2,SE,5.8,-,0.00,Snow,Light Snow,140,2013-02-18 07:38:00
1:53 AM,27.0,25.0,92,29.55,1.2,SE,5.8,-,0.00,Snow,Light Snow,140,2013-02-18 07:53:00
2:03 AM,26.6,24.8,93,29.49,2.0,SE,5.8,-,0.00,Snow,Light Snow,140,2013-02-18 08:03:00
2:42 AM,26.6,24.8,93,29.48,3.0,SE,4.6,-,0.00,,Overcast,130,2013-02-18 08:42:00
2:53 AM,27.0,25.0,92,29.54,2.5,SE,3.5,-,0.00,Snow,Light Snow,130,2013-02-18 08:53:00
3:53 AM,26.1,24.1,92,29.52,1.2,ESE,4.6,-,0.00,Snow,Light Snow,120,2013-02-18 09:53:00
4:37 AM,24.8,24.8,100,29.47,1.0,SSE,3.5,-,0.01,Snow,Light Snow,150,2013-02-18 10:37:00
4:48 AM,24.8,24.8,100,29.47,0.8,SE,3.5,-,0.02,Snow,Light Snow,130,2013-02-18 10:48:00
4:53 AM,25.0,24.1,96,29.52,0.8,SE,3.5,-,0.02,Snow,Light Snow,130,2013-02-18 10:53:00
5:10 AM,24.8,24.8,100,29.47,0.5,ESE,3.5,-,N/A,Fog-Snow,Snow,120,2013-02-18 11:10:00
5:53 AM,24.8,24.8,100,29.48,0.5,ESE,4.6,-,N/A,Fog-Snow,Snow,110,2013-02-18 11:53:00
6:53 AM,25.0,23.0,92,29.54,0.8,Calm,Calm,-,0.06,Snow,Light Snow,0,2013-02-18 12:53:00
7:16 AM,24.8,24.8,100,29.49,0.5,Calm,Calm,-,0.03,Fog-Snow,Snow,0,2013-02-18 13:16:00
7:53 AM,25.0,23.0,92,29.55,0.2,North,9.2,-,0.09,Fog-Snow,Snow,360,2013-02-18 13:53:00
8:17 AM,24.8,23.0,93,29.50,0.5,North,8.1,-,N/A,Fog-Snow,Snow,350,2013-02-18 14:17:00
8:26 AM,23.0,21.2,93,29.51,0.5,NNW,12.7,-,0.02,Fog-Snow,Snow,340,2013-02-18 14:26:00
8:53 AM,21.0,18.0,88,29.58,0.8,NNW,19.6,-,0.03,Snow,Light Snow,340,2013-02-18 14:53:00
9:00 AM,21.2,17.6,86,29.53,0.8,NNW,19.6,24.2,0.00,Snow,Light Snow,340,2013-02-18 15:00:00
9:12 AM,19.4,17.6,93,29.54,0.5,NNW,19.6,25.3,0.00,Fog-Snow,Snow,340,2013-02-18 15:12:00
9:53 AM,15.1,10.9,84,29.63,0.5,North,26.5,36.8,0.01,Fog,Light Freezing Fog,350,2013-02-18 15:53:00
10:33 AM,12.2,8.6,85,29.60,0.5,NNW,24.2,32.2,N/A,Fog,Light Freezing Fog,340,2013-02-18 16:33:00
10:50 AM,12.2,8.6,85,29.61,0.5,NNW,25.3,33.4,N/A,Fog,Light Freezing Fog,340,2013-02-18 16:50:00
10:53 AM,12.0,8.1,84,29.68,0.5,NNW,23.0,33.4,N/A,Fog,Light Freezing Fog,340,2013-02-18 16:53:00
11:30 AM,10.4,6.8,85,29.64,0.8,NNW,23.0,31.1,0.01,,Overcast,340,2013-02-18 17:30:00
11:53 AM,10.9,6.1,81,29.72,0.8,NNW,20.7,28.8,0.01,,Haze,340,2013-02-18 17:53:00
12:11 PM,10.4,5.0,79,29.66,0.5,NNW,23.0,32.2,0.00,Snow,Snow,340,2013-02-18 18:11:00
12:53 PM,10.0,5.0,80,29.74,0.5,NNW,20.7,29.9,0.00,Snow,Snow,340,2013-02-18 18:53:00
1:53 PM,9.0,3.9,80,29.77,0.8,NNW,23.0,31.1,0.00,Snow,Light Snow,340,2013-02-18 19:53:00
2:41 PM,8.6,3.2,79,29.73,1.0,NNW,21.9,29.9,0.00,Snow,Light Snow,340,2013-02-18 20:41:00
2:53 PM,9.0,3.9,80,29.81,1.0,NNW,23.0,29.9,0.00,Snow,Light Snow,340,2013-02-18 20:53:00
3:07 PM,8.6,3.2,79,29.75,0.8,NNW,21.9,31.1,0.00,Snow,Light Snow,340,2013-02-18 21:07:00
3:24 PM,8.6,3.2,79,29.76,1.0,NNW,21.9,28.8,N/A,Snow,Light Snow,340,2013-02-18 21:24:00
3:32 PM,8.6,3.2,79,29.77,0.8,NNW,21.9,27.6,0.00,Snow,Light Snow,340,2013-02-18 21:32:00
3:53 PM,8.1,3.0,80,29.85,1.0,NNW,23.0,29.9,0.00,Snow,Light Snow,340,2013-02-18 21:53:00
4:14 PM,6.8,1.4,79,29.79,1.5,North,20.7,32.2,0.00,Snow,Light Snow,350,2013-02-18 22:14:00
4:34 PM,6.8,1.4,79,29.79,2.0,NNW,21.9,29.9,0.00,Snow,Light Snow,340,2013-02-18 22:34:00
4:41 PM,6.8,1.4,79,29.80,3.0,NNW,17.3,26.5,0.00,Snow,Light Snow,340,2013-02-18 22:41:00
4:53 PM,6.1,1.0,80,29.88,3.0,NNW,19.6,28.8,0.00,Snow,Light Snow,340,2013-02-18 22:53:00
5:04 PM,6.8,1.4,79,29.82,2.5,NNW,21.9,26.5,0.00,Snow,Light Snow,330,2013-02-18 23:04:00
5:13 PM,5.0,1.4,85,29.82,1.8,NNW,16.1,27.6,0.00,Snow,Light Snow,340,2013-02-18 23:13:00
5:41 PM,5.0,-0.4,78,29.85,2.5,NNW,19.6,27.6,N/A,Snow,Light Snow,340,2013-02-18 23:41:00
5:53 PM,5.0,-0.0,80,29.93,2.5,NNW,19.6,-,0.00,Snow,Light Snow,340,2013-02-18 23:53:00
6:09 PM,5.0,-0.4,78,29.86,3.0,NNW,17.3,27.6,0.00,Snow,Light Snow,340,2013-02-19 00:09:00
6:53 PM,3.9,-0.9,80,29.96,3.0,North,20.7,27.6,0.00,Snow,Light Snow,350,2013-02-19 00:53:00
7:53 PM,3.0,-2.0,80,29.97,4.0,North,18.4,28.8,0.00,Snow,Light Snow,350,2013-02-19 01:53:00
8:53 PM,1.9,-2.9,80,29.99,6.0,North,19.6,26.5,0.00,,Haze,350,2013-02-19 02:53:00
9:53 PM,1.0,-5.1,75,30.01,5.0,North,21.9,32.2,0.00,,Overcast,350,2013-02-19 03:53:00
10:53 PM,1.0,-5.1,75,30.05,10.0,North,12.7,-,0.00,,Overcast,350,2013-02-19 04:53:00
11:53 PM,-0.0,-6.0,76,30.08,6.0,North,18.4,26.5,0.00,,Overcast,360,2013-02-19 05:53:00